Regional Weather Roundup
Issued by NWS

Home | Current Version | Previous Version | Text Only | Print | Product List | Glossary On
Versions: 1 2 3 4 5 6 7 8 9 10 11 12 13 14 15 16 17 18 19 20 21 22 23 24 25 26 27 28 29 30 31 32 33 34 35 36 37 38 39 40 41 42 43 44 45 46 47 48 49 50
000
ASUS44 KBMX 280710
RWRAL

ALABAMA REGIONAL WEATHER ROUNDUP
NATIONAL WEATHER SERVICE BIRMINGHAM AL
200 AM CDT THU AUG 28 2014

NOTE: "FAIR" INDICATES FEW OR NO CLOUDS BELOW 12,000 FEET
WITH NO SIGNIFICANT WEATHER AND/OR OBSTRUCTIONS TO VISIBILITY.

THE REMARK "TC" DENOTES TEMPERATURE IN DEGREES CELSIUS.

ALZ001>011-014-016>018-020-280800-
NORTH ALABAMA

CITY           SKY/WX    TMP DP  RH WIND       PRES   REMARKS
MUSCLE SHOALS  CLEAR     73  69  87 CALM      30.04S
HUNTSVILLE     CLEAR     71  67  87 CALM      30.03F
DECATUR        CLEAR     67  65  93 CALM      30.03F
HALEYVILLE     FAIR      67  66  96 CALM      30.07F
GADSDEN        CLEAR     64  61  88 CALM      30.03S
$$

ALZ012-013-022-023-030>036-040>044-280800-
WEST CENTRAL ALABAMA

CITY           SKY/WX    TMP DP  RH WIND       PRES   REMARKS
TUSCALOOSA     CLEAR     70  65  84 CALM      30.02S
$$

ALZ015-024>027-033>036-040>044-280800-
CENTRAL ALABAMA

CITY           SKY/WX    TMP DP  RH WIND       PRES   REMARKS
BIRMINGHAM     PTCLDY    69  62  78 CALM      30.05F
MONTGOMERY     PTCLDY    70  66  87 CALM      30.01F
SHELBY CO ARPT CLEAR     69  64  84 CALM      30.03F
MAXWELL AFB    PTCLDY    71  70  97 N6        30.01S
GREENVILLE     FAIR      67  63  87 CALM      30.01F
$$

ALZ019-021-028-029-037-038-045>048-280800-
EAST CENTRAL ALABAMA

CITY           SKY/WX    TMP DP  RH WIND       PRES   REMARKS
ANNISTON       CLEAR     67  64  90 E3        30.04F
ALEXANDER CITY CLEAR     69  64  84 CALM      30.04S
AUBURN         CLEAR     70  59  68 NE6       30.06F
$$

ALZ051>064-280800-
SOUTHWEST ALABAMA

CITY           SKY/WX    TMP DP  RH WIND       PRES   REMARKS
MOBILE         PTCLDY    74  73  97 CALM      30.01S
BROOKLEY FIELD PTCLDY    75  73  93 CALM      30.01F
EVERGREEN      CLEAR     68  66  93 CALM      30.01F
$$

ALZ049-050-065>069-280800-
SOUTHEAST ALABAMA

CITY           SKY/WX    TMP DP  RH WIND       PRES   REMARKS
DOTHAN         CLEAR     66  62  87 CALM      30.04S
OZARK          CLEAR     67  64  90 SE6       30.01S
TROY           CLEAR     65  63  93 CALM      30.01F
EUFAULA        FAIR      65  62  90 CALM      30.00F
$$



USA.gov is the U.S. government's official web portal to all federal, state and local government web resources and services.